Flag for Paraguay Weather past 2 weeks in Asuncion, Paraguay

Now
72 °F

Clear.


Feels Like: 67 °F
Forecast: 73 / 90 °F
Wind: 7 mph from South

Location: Asuncion / Aeropuerto

Current Time: Jan 30, 2015 at 5:06:32 AM

Latest Report: Jan 30, 2015 at 4:00 AM


Visibility: 10 mi

Pressure: 29.89 "Hg

Humidity: 94%

Dew point: 70 °F

Location of AsuncionLocation

Historic Weather in Asuncion — Graph

°F

Asuncion temperature yesterday

Maximum temperature yesterday: 86 °F (at 3:00 PM)
Minimum temperature yesterday: 73 °F (at 11:00 AM)
Average temperature yesterday: 79 °F

Past Weeks' High & Low Weather Summary

 TemperatureHumidityPressure
High97 °F (Jan 17, 3:00 PM)100% (Jan 15, 9:30 AM)30.04 "Hg (Jan 15, 9:30 AM)
Low68 °F (Jan 25, 7:00 PM)12% (Jan 17, 3:00 PM)29.68 "Hg (Jan 28, 5:00 PM)
Average81 °F78%29.87 "Hg
* Reported Jan 15 4:00 AM — Jan 30 4:00 AM, Asuncion, Weather by CustomWeather, © 2014

Note: Actual official high and low records may vary slightly from our data, if they occured in-between our weather recording intervals... More about our weather records

Advertising

Asuncion weather history for previous 24 hours

 ConditionsComfort  
Time TempWeatherWind HumidityBarometerVisibility
4:00 AM
Jan 30
72 °FClear.7 mph94%29.89 "Hg10 mi
3:00 AM72 °FPassing clouds.5 mph94%29.89 "HgN/A
2:00 AM72 °FClear.3 mph94%29.92 "Hg10 mi
1:00 AM73 °FClear.6 mph89%29.95 "Hg10 mi
12:00 AM73 °FClear.6 mph89%29.95 "Hg10 mi
11:00 PM
Jan 29
75 °FPassing clouds.13 mph83%29.95 "HgN/A
10:00 PM75 °FPassing clouds.16 mph83%29.92 "HgN/A
9:00 PM79 °FPassing clouds.15 mph79%29.89 "HgN/A
8:00 PM81 °FPassing clouds.15 mph74%29.89 "HgN/A
7:00 PM82 °FScattered clouds.16 mph66%29.86 "HgN/A
6:00 PM84 °FBroken clouds.9 mph66%29.83 "HgN/A
5:00 PM86 °FPartly sunny.9 mph62%29.83 "HgN/A
4:00 PM84 °FPartly sunny.9 mph70%29.83 "HgN/A
3:00 PM86 °FPartly sunny.10 mph70%29.86 "HgN/A
2:00 PM84 °FPartly sunny.9 mph74%29.86 "HgN/A
1:00 PM82 °FPartly sunny.10 mph79%29.86 "HgN/A
12:00 PM77 °FPartly sunny.5 mph100%29.92 "HgN/A
11:00 AM73 °FStrong thunderstorms. Mostly cloudy.3 mph100%29.89 "Hg3 mi
10:30 AM79 °FHeavy rain. Mostly cloudy.8 mph89%29.86 "Hg1 mi
10:00 AM81 °FPartly sunny.7 mph84%29.86 "HgN/A
9:30 AM81 °FPartly sunny.7 mph89%29.86 "HgN/A
9:00 AM77 °FPartly sunny.6 mph94%29.83 "HgN/A
8:30 AM75 °FThunderstorms. Mostly cloudy.3 mph100%29.83 "HgN/A
8:00 AM75 °FThunderstorms. Mostly cloudy.6 mph94%29.83 "HgN/A
7:00 AM77 °FLight rain. Mostly cloudy.2 mph94%29.80 "HgN/A
6:00 AM77 °FThunderstorms. Mostly cloudy.3 mph94%29.77 "HgN/A
5:00 AM77 °FThunderstorms. Mostly cloudy.5 mph94%29.77 "HgN/A
Weather by CustomWeather, © 2014

See weather overviewHow to use our weather pages